Weather History for Racine, WI

Change the Weather History Date:

Saturday, April 20, 2013

  Actual Average Record
Temperature  
Mean Temperature 36 °F -  
Max Temperature 44 °F 56 °F 87 °F (1985)
Min Temperature 30 °F 40 °F 25 °F (1956)
Degree Days  
Heating Degree Days 28    
Moisture  
Dew Point 19 °F    
Average Humidity 51    
Maximum Humidity 62    
Minimum Humidity 35    
Precipitation  
Precipitation 0.00 in - - ()
Sea Level Pressure  
Sea Level Pressure 30.25 in    
Wind  
Wind Speed 10 mph (WNW)    
Max Wind Speed 14 mph    
Max Gust Speed 20 mph    
Visibility 10 miles    
Events      
Averages and records for this station are not official NWS values.
T = Trace of Precipitation, MM = Missing Value Source: NWS Daily Summary

Daily Weather History Graph

Daily Weather History Graph

Search for Another Location

Airport:

Trip Planner

Search our weather history database for the weather conditions in past years. The results will help you decide how hot, cold, wet, or windy it might be!

Date:

Astronomy

Apr. 20, 2013 Rise Set
Actual Time 6:01 AM CDT 7:39 PM CDT
Civil Twilight 5:31 AM CDT 8:09 PM CDT
Nautical Twilight 4:55 AM CDT 8:45 PM CDT
Astronomical Twilight 4:16 AM CDT 9:24 PM CDT
Moon 2:16 PM CDT (4/20) 2:58 AM CDT (4/20)
Length of Visible Light 14h 37m
Length of Day
13h 38m
Waxing Gibbous, 71% of the Moon is Illuminated
Apr 20
Waxing Gibbous
Apr 25
Full
May 2
Last Quarter
May 9
New
May 17
First Quarter

Hourly Weather History & Observations

Time (CDT) Temp. Windchill Dew Point Humidity Pressure Visibility Wind Dir Wind Speed Gust Speed Precip Events Conditions
12:53 AM 34.0 °F 25.5 °F 18.0 °F 52% 29.94 in 10.0 mi NW 11.5 mph 18.4 mph N/A   Scattered Clouds
1:53 AM 34.0 °F 25.0 °F 18.0 °F 52% 29.96 in 10.0 mi WNW 12.7 mph 19.6 mph N/A   Clear
2:53 AM 33.1 °F 24.9 °F 17.1 °F 52% 30.00 in 10.0 mi NW 10.4 mph 19.6 mph N/A   Clear
3:53 AM 32.0 °F 23.6 °F 17.1 °F 54% 30.03 in 10.0 mi NW 10.4 mph - N/A   Clear
4:53 AM 30.9 °F 26.2 °F 17.1 °F 57% 30.06 in 10.0 mi WNW 4.6 mph - N/A   Clear
5:53 AM 30.0 °F 25.2 °F 16.0 °F 56% 30.10 in 10.0 mi NW 4.6 mph - N/A   Clear
6:53 AM 30.9 °F 26.2 °F 18.0 °F 59% 30.13 in 10.0 mi West 4.6 mph - N/A   Clear
7:53 AM 33.1 °F 25.5 °F 19.0 °F 56% 30.17 in 10.0 mi WNW 9.2 mph - N/A   Clear
8:53 AM 35.1 °F 26.4 °F 18.0 °F 50% 30.20 in 10.0 mi WNW 12.7 mph - N/A   Clear
9:53 AM 37.0 °F 28.9 °F 19.0 °F 48% 30.22 in 10.0 mi West 12.7 mph - N/A   Partly Cloudy
10:53 AM 39.0 °F 31.8 °F 14.0 °F 36% 30.25 in 10.0 mi NW 11.5 mph 18.4 mph N/A   Clear
11:53 AM 41.0 °F 33.5 °F 16.0 °F 36% 30.27 in 10.0 mi WNW 13.8 mph 19.6 mph N/A   Clear
12:53 PM 42.1 °F 37.1 °F 16.0 °F 35% 30.29 in 10.0 mi NW 8.1 mph - N/A   Scattered Clouds
1:53 PM 43.0 °F 39.5 °F 17.1 °F 35% 30.30 in 10.0 mi Variable 5.8 mph - N/A   Mostly Cloudy
2:53 PM 39.9 °F 34.5 °F 19.9 °F 45% 30.32 in 10.0 mi East 8.1 mph - N/A   Overcast
3:53 PM 37.9 °F 30.9 °F 21.0 °F 51% 30.34 in 10.0 mi ESE 10.4 mph - N/A   Overcast
4:53 PM 39.0 °F 32.3 °F 21.0 °F 49% 30.35 in 10.0 mi East 10.4 mph - N/A   Overcast
5:53 PM 37.9 °F 31.5 °F 21.0 °F 51% 30.37 in 10.0 mi SE 9.2 mph - N/A   Partly Cloudy
6:53 PM 37.9 °F 30.5 °F 21.9 °F 53% 30.38 in 10.0 mi SE 11.5 mph - N/A   Clear
7:53 PM 37.0 °F 30.4 °F 21.9 °F 54% 30.40 in 10.0 mi SE 9.2 mph - N/A   Clear
8:53 PM 36.0 °F 29.0 °F 23.0 °F 59% 30.43 in 10.0 mi SSE 9.2 mph - N/A   Clear
9:53 PM 36.0 °F 31.1 °F 23.0 °F 59% 30.45 in 10.0 mi SSE 5.8 mph - N/A   Clear
10:53 PM 36.0 °F 30.3 °F 23.0 °F 59% 30.46 in 10.0 mi SSE 6.9 mph - N/A   Clear
11:53 PM 36.0 °F 29.0 °F 24.1 °F 62% 30.47 in 10.0 mi SE 9.2 mph - N/A   Clear